DateTimeUTC,F1_A11,F1_S11,BsB_S11,BsG_S11,BsR_S11,BbsB_S11,BbsG_S11,BbsR_S11,BaB_A11,BaG_A11,BaR_A11,Tu_S11,T_S11,Uu_S11,U_S11,P_S11,T1_A11
2021-09-12T09:00:00Z,00000200,21000000,,,,,,,0000.19,0000.19,-000.07,19.2,26.1,,00.0,0660.8,31.1
2021-09-12T09:01:00Z,00000200,21000000,,,,,,,0000.10,-000.23,0000.11,19.2,26.1,,00.0,0660.8,31.1
2021-09-12T09:02:00Z,00000200,21000000,,,,,,,-000.07,-000.11,0000.44,19.2,26.1,,00.0,0660.7,31.1
2021-09-12T09:03:00Z,00000200,61000000,,,,,,,0000.08,0000.05,-000.34,19.2,26.1,,00.0,0660.7,31.1
2021-09-12T09:04:00Z,00000200,41000000,0000.34,0000.03,0000.33,0000.38,0000.06,0000.13,-000.00,0000.27,0000.31,19.6,26.1,00.0,00.0,0661.6,31.1
2021-09-12T09:05:00Z,00000200,01000000,0000.67,0000.57,0000.30,0000.44,0000.20,0000.18,0000.58,0000.45,-000.17,19.7,26.1,00.0,00.0,0661.8,31.1
2021-09-12T09:06:00Z,00000200,01000000,0000.80,0000.66,0000.17,0000.62,0000.10,0000.13,-000.06,-000.01,0000.33,19.8,26.1,00.0,00.0,0661.8,31.1
2021-09-12T09:07:00Z,00000200,01000000,-000.16,0000.31,0000.33,0000.33,0000.13,-000.09,0000.20,0000.32,0000.25,19.8,26.1,00.0,00.0,0661.7,31.1
2021-09-12T09:08:00Z,00000200,01000000,0000.50,0000.54,0000.11,0000.69,-000.22,0000.09,0000.03,0000.08,0000.08,19.8,26.1,00.0,00.0,0661.9,31.1
2021-09-12T09:09:00Z,00000200,01000000,0000.97,0000.24,0000.03,-000.17,0000.04,0000.15,-000.16,-000.41,-000.12,19.7,26.0,00.0,00.0,0662.0,31.1
2021-09-12T09:10:00Z,00000200,01000000,0000.25,0000.44,0000.21,0000.29,0000.08,0000.15,0000.08,-000.08,-000.11,19.6,26.0,00.0,00.0,0661.8,31.0
2021-09-12T09:11:00Z,00000200,01000000,-000.59,0000.41,0000.27,0000.13,0000.15,0000.10,0000.30,0000.15,-000.16,19.5,25.9,00.0,00.0,0661.8,31.0
2021-09-12T09:12:00Z,00000200,01000000,0000.59,0000.41,-000.00,0000.39,-000.07,-000.20,0000.18,0000.24,0000.40,19.5,25.9,00.0,00.0,0661.8,31.0
2021-09-12T09:13:00Z,00000200,01000000,0000.41,0000.34,0000.04,0000.42,-000.03,0000.05,-000.16,-000.05,-000.05,19.5,25.9,00.0,00.0,0661.9,31.1
2021-09-12T09:14:00Z,00000200,01000000,0000.78,0000.66,0000.14,0000.51,0000.24,-000.32,0000.11,0000.51,0000.16,19.6,25.9,00.1,00.0,0661.7,31.0
2021-09-12T09:15:00Z,00000200,01000000,0000.82,0000.55,0000.48,0000.15,0000.03,0000.08,0000.52,0000.29,0000.01,19.6,26.0,00.0,00.0,0661.8,31.0
2021-09-12T09:16:00Z,00000200,01000000,0000.27,0000.37,0000.05,-000.06,0000.23,-000.04,0000.05,-000.10,0000.68,19.7,26.0,00.0,00.0,0661.8,31.1
2021-09-12T09:17:00Z,00000200,01000000,0001.19,0000.36,0000.18,0000.14,0000.20,-000.08,-000.19,0000.45,-000.14,19.7,26.0,00.0,00.0,0661.8,31.1
2021-09-12T09:18:00Z,00000200,01000000,0000.50,0000.15,0000.57,0000.75,0000.12,0000.16,0000.40,0000.01,0000.28,19.8,26.1,00.0,00.0,0661.8,31.1
2021-09-12T09:19:00Z,00000200,01000000,0001.08,0000.10,0000.21,-000.07,0000.09,0000.08,0000.03,0000.00,-000.19,19.8,26.1,00.0,00.0,0661.9,31.1
2021-09-12T09:20:00Z,00000200,01000000,0001.51,0000.36,-000.15,0000.37,0000.08,-000.18,0000.10,-000.05,-000.13,19.8,26.1,00.0,00.0,0661.9,31.1
2021-09-12T09:21:00Z,00000200,01000000,0000.56,0000.58,0000.44,0000.62,-000.18,0000.10,0000.07,0000.03,0000.23,19.8,26.1,00.0,00.0,0661.8,31.1
2021-09-12T09:22:00Z,00000200,01000000,0000.45,0000.30,0000.11,0000.40,0000.27,0000.17,-000.30,-000.25,-000.16,19.8,26.1,00.0,00.0,0662.1,31.1
2021-09-12T09:23:00Z,00000200,01000000,0000.96,0000.25,0000.21,0000.31,-000.43,-000.12,0000.31,0000.17,0000.00,19.7,26.0,00.0,00.0,0661.9,31.0
2021-09-12T09:24:00Z,00000200,01000000,0001.13,0000.45,-000.01,0000.42,-000.07,-000.10,-000.25,-000.01,-000.18,19.6,26.0,00.0,00.0,0661.9,31.0
2021-09-12T09:25:00Z,00000200,01000000,0000.64,0000.28,0000.03,0000.52,0000.28,-000.07,0000.06,-000.55,-000.01,19.4,25.9,00.0,00.0,0661.8,31.0
2021-09-12T09:26:00Z,00000200,01000000,0000.57,0000.74,0000.25,0000.03,0000.26,0000.02,0000.10,0000.73,0000.07,19.3,25.8,00.0,00.0,0661.8,31.0
2021-09-12T09:27:00Z,00000200,01000000,0000.86,0000.42,-000.06,0000.08,0000.33,-000.15,0000.56,0000.06,0000.43,19.3,25.8,00.0,00.0,0661.8,31.0
2021-09-12T09:28:00Z,00000200,01000000,0000.86,0000.39,0000.23,0000.05,0000.42,0000.08,-000.08,0000.35,0000.10,19.4,25.8,00.0,00.0,0661.8,31.0
2021-09-12T09:29:00Z,00000200,01000000,0000.48,0000.39,0000.25,0000.24,0000.36,0000.01,0000.28,0000.12,0000.21,19.4,25.8,00.0,00.0,0661.6,31.0
2021-09-12T09:30:00Z,00000200,01000000,0001.21,0000.65,-000.09,0000.59,-000.16,-000.14,0000.15,0000.25,0000.10,19.4,25.9,00.0,00.0,0661.9,31.0
2021-09-12T09:31:00Z,00000200,01000000,0001.25,0000.08,0000.28,-000.06,0000.18,0000.25,0000.20,0000.48,0000.24,19.5,25.9,00.1,00.0,0661.7,31.1
2021-09-12T09:32:00Z,00000200,01000000,0000.72,0000.29,0000.12,0000.64,-000.07,-000.07,0000.11,0000.12,0000.39,19.6,25.9,00.0,00.0,0661.9,31.1
2021-09-12T09:33:00Z,00000200,01000000,0000.97,0000.31,0000.25,0000.41,0000.03,-000.04,0000.35,0000.08,-000.18,19.6,26.0,00.0,00.0,0661.7,31.1
2021-09-12T09:34:00Z,00000200,01000000,0001.39,0000.46,0000.01,0000.08,0000.15,-000.07,0000.10,0000.12,-000.08,19.7,26.0,00.0,00.0,0661.7,31.1
2021-09-12T09:35:00Z,00000200,01000000,0000.83,0000.38,0000.27,0000.29,-000.01,0000.19,0000.15,0000.34,0000.24,19.8,26.0,00.0,00.0,0661.7,31.1
2021-09-12T09:36:00Z,00000200,01000000,0000.77,0000.50,0000.02,0000.71,-000.04,0000.29,0000.07,-000.23,0000.35,19.8,26.1,00.0,00.0,0661.9,31.1
2021-09-12T09:37:00Z,00000200,01000000,0001.12,0000.35,0000.16,0000.43,-000.12,-000.01,0000.09,0000.02,0000.14,19.8,26.1,00.0,00.0,0661.8,31.1
2021-09-12T09:38:00Z,00000200,01000000,0001.18,0000.21,-000.08,0000.45,-000.05,-000.08,0000.31,0000.50,-000.02,19.8,26.1,00.0,00.0,0661.7,31.1
2021-09-12T09:39:00Z,00000200,01000000,0000.43,0000.42,-000.07,-000.38,0000.08,-000.03,-000.13,-000.57,0000.04,19.8,26.1,00.0,00.0,0661.7,31.1
2021-09-12T09:40:00Z,00000200,01000000,0001.05,0000.29,0000.16,0000.25,0000.01,-000.15,-000.23,0000.05,-000.67,19.7,26.0,00.0,00.0,0661.6,31.1
2021-09-12T09:41:00Z,00000200,01000000,0000.15,0000.27,0000.08,0000.96,-000.02,0000.05,0000.20,0000.23,0000.38,19.6,25.9,00.0,00.0,0661.7,31.0
2021-09-12T09:42:00Z,00000200,01000000,0000.91,0000.51,0000.05,0000.21,0000.24,-000.01,0000.29,-000.00,0000.08,19.6,25.9,00.0,00.0,0661.6,31.0
2021-09-12T09:43:00Z,00000200,01000000,0001.05,0000.37,0000.16,0000.05,-000.13,0000.02,0000.22,0000.45,0000.11,19.6,25.9,00.0,00.0,0661.5,31.0
2021-09-12T09:44:00Z,00000200,01000000,0000.91,0000.42,0000.16,0000.37,0000.26,0000.33,0000.29,0000.09,0000.40,19.6,26.0,00.0,00.0,0661.4,31.1
2021-09-12T09:45:00Z,00000200,01000000,0001.19,0000.35,0000.07,0000.28,0000.10,-000.05,0000.34,0000.45,0000.01,19.7,26.0,00.0,00.0,0661.6,31.1
2021-09-12T09:46:00Z,00000200,01000000,0000.81,0000.77,0000.21,0000.72,-000.11,-000.14,-000.13,-000.11,0000.27,19.7,26.0,00.0,00.0,0661.6,31.1
2021-09-12T09:47:00Z,00000200,01000000,0000.85,0000.50,0000.11,0000.85,0000.20,0000.02,0000.14,0000.47,-000.03,19.8,26.1,00.1,00.0,0661.6,31.1
2021-09-12T09:48:00Z,00000200,01000000,0000.47,0000.36,0000.38,0000.44,-000.08,0000.30,0000.21,-000.11,0000.12,19.8,26.1,00.0,00.0,0661.6,31.1
2021-09-12T09:49:00Z,00000200,01000000,-000.05,0000.31,0000.25,0000.25,0000.02,0000.48,-000.01,-000.32,0000.27,19.7,26.0,00.0,00.0,0661.6,31.1
2021-09-12T09:50:00Z,00000200,01000000,0000.60,0000.39,-000.21,-000.24,-000.03,-000.02,0000.04,0000.17,-000.23,19.6,25.9,00.1,00.0,0661.5,31.0
2021-09-12T09:51:00Z,00000200,01000000,0000.49,0000.38,0000.23,0000.50,0000.06,-000.19,-000.36,-000.24,-000.34,19.5,25.9,00.0,00.0,0661.4,31.0
2021-09-12T09:52:00Z,00000200,01000000,0000.59,0000.25,-000.20,0000.43,0000.13,-000.20,0000.31,-000.04,0000.06,19.4,25.9,00.0,00.0,0661.3,31.0
2021-09-12T09:53:00Z,00000200,01000000,0000.49,0000.12,-000.05,0000.15,0000.23,-000.24,0000.08,0000.07,0000.22,19.3,25.8,00.1,00.0,0661.2,31.0
2021-09-12T09:54:00Z,00000200,01000000,-000.40,0000.34,0000.52,-000.05,0000.12,-000.08,0000.31,0000.18,0000.23,19.2,25.7,00.1,00.1,0661.3,31.0
2021-09-12T09:55:00Z,00000200,01000000,0000.50,0000.47,0000.17,-000.02,0000.22,-000.05,0000.10,0000.32,-000.19,19.1,25.7,00.1,00.0,0661.2,31.0
2021-09-12T09:56:00Z,00000200,01000000,0000.43,0000.83,0000.08,-000.29,0000.15,-000.15,0000.12,0000.34,0000.28,19.0,25.6,00.1,00.1,0661.3,31.0
2021-09-12T09:57:00Z,00000200,41000000,,,,,,,0000.21,0000.06,0000.14,19.0,25.7,,00.0,0661.3,31.0
2021-09-12T09:58:00Z,00000200,61000000,,,,,,,0000.23,0000.33,0000.28,18.8,25.8,,00.0,0660.1,31.0
2021-09-12T09:59:00Z,00000200,21000000,,,,,,,0000.00,-000.12,0000.18,18.8,25.9,,00.0,0660.0,31.0
